SCP
1 1 1 1 1 1 1 1 1 1 1 1 1 1 1 1 1 2 1 1 1 1 0 0 0 0 0 0 0 1 1 1 1 1 0 0 0 0 0 0 0 0 0
1 1 1 1 1 1 1 1 1 1 1 1 1 1 1 1 1 1 1 1 1 0 0 0 0 0 0 0 0 1 1 1 1 1 0 0 0 0 0 0 0 0 0
1 1 1 1 0 0 0 1 1 1 1 1 1 1 1 1 1 1 1 1 0 0 0 0 0 0 0 0 0 1 1 1 1 1 0 0 0 0 0 0 0 0 0
0 0 0 0 0 0 0 0 0 0 0 0 1 1 1 1 0 0 0 0 0 0 0 0 0 0 0 0 1 1 1 1 1 1 0 0 0 0 0 0 0 0 0
0 0 0 0 0 0 0 0 0 0 0 0 0 0 0 0 0 0 0 0 0 0 0 0 0 0 0 0 0 0 1 1 1 1 0 0 0 0 0 0 0 0 0
0 0 0 0 0 0 0 0 0 0 0 0 0 0 0 0 0 0 0 0 0 0 0 0 0 0 0 0 0 0 0 1 1 1 0 0 0 0 0 0 0 0 0
0 0 0 0 0 0 0 0 0 0 0 0 0 0 0 0 0 0 0 0 0 0 0 0 0 0 0 0 0 0 0 0 0 0 0 0 0 0 0 0 0 0 0
0 0 0 0 0 0 0 0 0 0 0 0 0 0 0 0 0 0 0 0 0 0 0 0 0 0 0 0 0 0 0 0 0 0 0 0 0 0 0 0 0 0 0
0 0 0 0 0 0 0 0 0 0 0 0 0 0 0 0 0 0 0 0 0 0 0 0 0 0 0 0 0 0 0 0 0 0 0 0 0 0 0 0 0 0 0
0 0 0 0 0 0 0 0 0 0 0 0 0 0 0 0 0 0 0 0 0 0 0 0 0 0 0 0 0 0 0 0 0 0 0 0 0 0 0 0 0 0 0
0 0 0 0 0 0 0 0 0 0 0 0 0 0 0 0 0 0 0 0 0 0 0 0 0 0 0 0 0 0 0 0 0 0 0 0 0 0 0 0 0 0 0
0 0 0 0 0 0 0 0 0 0 0 0 0 0 0 0 0 0 0 0 0 0 0 0 0 0 0 0 0 0 0 0 0 0 0 0 0 0 0 0 0 0 0
0 0 0 0 0 0 0 0 0 0 0 0 0 0 0 0 0 0 0 0 0 0 0 0 0 0 0 0 0 0 0 0 0 0 0 0 0 0 0 0 0 0 0
0 0 0 0 0 0 0 0 0 0 0 0 0 0 0 0 0 0 0 0 0 0 0 0 0 0 0 0 0 0 0 0 0 0 0 0 0 0 0 0 0 0 0
0 0 0 0 0 0 0 0 0 0 0 0 0 0 0 0 0 0 0 0 0 0 0 0 0 0 0 0 0 0 0 0 0 0 0 0 0 0 0 0 0 0 0
0 0 0 0 0 0 0 0 0 0 0 0 0 0 0 0 0 0 0 0 0 0 0 0 0 0 0 0 0 0 0 0 0 0 0 0 0 0 0 0 0 0 0
0 0 0 0 0 0 0 0 0 0 0 0 0 0 0 0 0 0 0 0 0 0 0 0 0 0 0 0 0 0 0 0 0 0 0 0 0 0 0 0 0 0 0
0 0 0 0 0 0 0 0 0 0 0 0 0 0 0 0 0 0 0 0 0 0 0 0 0 0 0 0 0 0 0 0 0 0 0 0 0 0 0 0 0 0 0
0 0 0 0 0 0 0 0 0 0 0 0 0 0 0 0 0 0 0 0 0 0 0 0 0 0 0 0 0 0 0 0 0 0 0 0 0 0 0 0 0 0 0
0 0 0 0 0 0 0 0 0 0 0 0 0 0 0 0 0 0 0 0 0 0 0 0 0 0 0 0 0 0 0 0 0 0 0 0 0 0 0 0 0 0 0
0 0 0 0 0 0 0 0 0 0 0 0 0 0 0 0 0 0 0 0 0 0 0 0 0 0 0 0 0 0 0 0 0 0 0 0 0 0 0 0 0 0 0
0 0 0 0 0 0 0 0 0 0 0 0 0 0 0 0 0 0 0 0 0 0 0 0 0 0 0 0 0 0 0 0 0 0 0 0 0 0 0 0 0 0 0
0 0 0 0 0 0 0 0 0 0 0 0 0 0 0 0 0 0 0 0 0 0 0 0 0 0 0 0 0 0 0 0 0 0 0 0 0 0 0 0 0 0 0
0 0 0 0 0 0 0 0 0 0 0 0 0 0 0 0 0 0 0 0 0 0 0 0 0 0 0 0 0 0 0 0 0 0 0 0 0 0 0 0 0 0 0
0 0 0 0 0 0 0 0 0 0 0 0 0 0 0 0 0 0 0 0 0 0 0 0 0 0 0 0 0 0 0 0 0 0 0 0 0 0 0 0 0 0 0
0 0 0 0 0 0 0 0 0 0 0 0 0 0 0 0 0 0 0 0 0 0 0 0 0 0 0 0 0 0 0 0 0 0 0 0 0 0 0 0 0 0 0
Wind_Speed
7 6 6 5 5 4 3 3 2 2 2 2 2 2 2 2 3 4 5 6 7 7 6 8 9 8 6 6 5 6 6 6 7 4 2 3 6 7 6 7 6 7 7
7 6 6 6 6 5 4 4 3 2 2 2 2 1 1 2 2 2 3 4 5 6 7 7 8 6 8 6 6 7 6 6 6 6 4 4 7 8 7 7 6 6 7
7 6 7 7 7 6 6 5 5 4 4 3 3 3 2 2 2 2 2 3 4 5 5 6 6 6 8 6 7 7 6 5 5 5 5 4 4 4 5 6 6 6 6
7 7 8 8 7 7 7 7 6 6 5 5 4 3 3 3 3 4 3 3 3 4 4 5 5 6 6 6 6 6 6 6 6 6 5 4 4 4 4 5 6 6 6
8 8 7 7 7 8 8 8 7 6 6 6 6 5 5 5 5 5 4 4 4 4 4 5 5 5 6 6 5 6 6 6 6 6 5 5 5 5 6 6 6 5 6
9 9 8 8 9 9 9 9 9 8 7 7 7 7 6 5 9 9 6 4 4 4 4 4 4 5 6 7 8 8 8 8 7 7 6 7 8 7 6 6 6 5 6
9 9 9 9 9 9 8 9 9 8 8 8 8 8 8 9 11 10 8 5 4 4 5 5 4 4 5 6 7 9 10 11 11 8 9 9 9 8 7 8 8 8 7
8 9 9 8 8 8 8 9 8 7 7 7 8 8 7 9 13 12 10 6 4 5 5 6 6 5 4 6 6 7 8 8 9 8 9 9 8 7 8 8 8 6 4
8 8 8 8 8 8 8 8 7 7 7 7 7 8 8 9 12 13 12 6 5 6 6 6 7 7 7 7 7 7 8 7 7 10 11 11 11 11 9 5 5 6 5
7 7 7 7 7 7 7 7 6 6 6 6 6 7 7 7 11 13 13 6 6 6 6 6 7 10 10 9 7 7 8 8 7 7 8 8 9 10 12 10 8 7 5
6 6 6 7 7 7 6 6 6 6 6 6 6 6 6 8 10 12 13 7 7 7 6 6 6 13 13 12 10 7 9 9 8 7 7 6 6 6 6 6 6 6 6
5 5 6 6 6 5 6 6 6 6 6 6 6 6 6 6 8 11 14 12 11 8 7 7 8 13 14 14 10 10 11 9 5 5 5 6 5 5 5 5 5 5 5
4 4 5 5 5 5 5 6 5 5 5 5 6 6 6 6 7 12 14 14 14 9 7 11 13 14 13 10 9 10 9 5 4 5 5 6 5 4 3 3 3 2 1
3 4 4 5 5 5 5 5 5 5 6 6 6 7 7 7 7 8 9 9 11 9 8 10 13 11 9 9 8 6 5 5 5 5 5 5 4 3 3 3 3 3 2
3 3 4 4 5 5 5 4 5 5 6 7 6 6 7 8 10 16 13 10 9 9 10 7 6 6 6 5 5 5 5 5 5 5 5 5 4 4 4 3 3 3 3
2 3 3 3 4 4 4 4 4 6 9 9 9 9 8 11 16 17 17 16 16 14 9 6 6 6 6 6 6 6 6 6 5 5 5 5 4 4 4 3 3 3 4
3 3 3 3 4 4 4 5 6 6 7 8 9 11 12 14 15 16 16 16 13 12 6 6 6 6 6 6 6 6 6 6 6 5 5 5 4 4 4 4 4 4 4
2 2 3 3 4 4 4 5 5 6 7 6 7 11 13 14 15 15 15 12 7 7 5 6 6 7 7 7 7 6 6 6 6 6 5 5 4 4 4 4 4 4 4
2 2 3 3 3 4 4 5 5 6 6 7 7 8 11 13 13 12 11 7 7 7 6 6 7 7 7 7 7 7 7 7 7 6 5 5 5 4 4 4 4 5 5
2 3 4 3 3 4 4 4 5 6 6 6 7 7 8 9 7 8 7 6 6 7 7 7 7 7 7 7 7 7 7 7 7 6 5 5 5 4 5 5 4 4 4
2 2 3 3 3 4 4 5 5 6 6 6 7 8 12 8 7 8 7 7 7 7 7 8 8 8 7 7 7 8 8 7 6 6 5 5 5 4 4 4 4 4 3
2 2 2 3 3 4 5 5 5 6 6 7 7 8 12 8 7 7 7 7 7 7 7 8 7 7 7 7 7 8 8 7 7 6 6 5 5 5 4 4 3 3 3
2 2 3 3 3 5 5 4 5 5 6 7 7 7 7 7 7 7 8 8 8 8 8 7 8 7 7 7 8 7 7 7 7 7 6 5 5 5 4 4 4 4 4
2 3 3 3 3 4 4 5 5 5 6 7 7 7 7 7 8 8 8 8 8 8 8 7 8 10 12 10 8 7 7 7 7 6 8 7 6 5 4 4 4 4 4
2 3 3 3 3 4 4 5 5 5 6 6 6 7 7 8 8 8 8 8 9 9 10 9 8 9 11 13 12 10 11 13 11 8 6 6 6 5 4 4 4 4 4
3 3 3 3 3 4 4 5 5 6 6 6 6 7 7 7 8 8 8 8 8 8 9 8 10 11 13 11 12 13 14 13 12 11 7 4 4 4 4 4 4 4 4
Wind_Direction
11 14 21 21 21 21 16 4 351 0 354 321 288 266 260 259 246 232 228 227 226 223 221 224 226 222 222 221 219 223 227 230 243 242 230 214 208 214 212 218 219 220 220
11 18 24 21 22 22 16 5 5 10 359 344 329 321 311 303 291 267 249 240 235 231 228 228 230 225 225 225 222 226 228 227 233 240 233 220 222 218 216 217 217 218 222
18 27 29 26 23 20 16 13 16 15 13 8 7 9 358 349 334 311 294 274 255 247 240 235 237 232 229 229 227 228 230 232 233 235 236 229 227 213 217 223 224 224 224
29 35 33 26 23 24 24 23 24 21 19 15 14 6 357 359 355 343 327 319 295 274 257 247 243 238 237 238 236 235 234 232 233 232 230 226 225 211 213 220 227 224 226
31 36 32 27 26 27 26 25 27 25 21 19 22 23 18 14 6 348 336 324 318 309 290 263 250 246 247 244 242 240 237 235 235 236 235 233 225 209 216 216 225 228 233
32 33 30 28 28 27 25 25 27 25 24 25 27 25 22 18 11 5 353 339 330 328 326 302 274 251 250 247 245 244 240 237 239 239 239 238 238 231 230 222 221 223 235
32 31 28 27 28 26 25 26 26 23 26 29 28 28 26 21 15 11 7 350 346 342 338 333 309 290 279 267 257 247 241 240 239 242 247 244 243 234 229 228 225 227 235
30 28 25 25 25 23 24 23 19 18 20 19 18 18 19 17 12 9 0 352 347 343 336 330 322 308 297 293 280 267 260 252 247 245 248 250 250 243 234 234 237 242 261
25 21 17 16 18 18 19 15 12 12 14 13 11 11 12 11 11 6 359 348 345 342 338 333 329 317 320 313 289 276 273 271 263 261 262 261 255 245 237 231 222 223 239
15 11 10 12 13 12 9 6 5 6 5 3 6 6 6 5 6 3 357 347 341 335 331 328 331 330 321 315 295 285 279 281 284 281 273 263 253 239 228 224 218 220 228
5 6 9 8 6 3 1 0 359 359 358 359 359 360 0 359 359 1 357 349 339 329 325 324 326 332 323 311 302 287 284 290 280 275 272 270 263 249 237 235 227 221 221
2 5 7 5 3 357 356 354 354 354 354 356 354 354 355 353 353 351 350 347 339 326 320 319 320 324 321 314 306 300 298 296 283 277 272 266 260 255 249 246 241 240 235
358 1 360 358 358 354 351 350 350 354 354 352 351 348 346 345 345 344 341 338 334 325 316 316 315 317 318 315 315 313 308 296 284 276 273 275 274 268 263 256 246 223 217
348 350 349 349 352 353 351 351 350 352 351 349 346 341 338 336 339 339 334 329 327 322 316 314 313 312 310 309 314 317 315 304 295 286 286 285 284 270 253 245 229 202 207
336 339 341 344 343 345 350 351 346 350 347 338 334 331 329 329 331 330 329 327 326 321 318 312 311 315 317 318 319 321 318 312 305 299 292 287 282 274 262 245 232 220 219
320 333 335 335 335 337 336 336 342 334 336 335 333 328 322 321 324 328 330 328 326 325 320 311 311 313 314 314 312 313 314 311 307 302 294 286 279 273 268 253 235 227 222
311 323 323 325 327 331 331 329 328 328 326 327 332 332 331 330 331 332 332 329 328 329 321 316 314 312 310 309 307 306 306 306 304 298 293 289 284 276 263 252 241 233 225
297 309 313 316 319 320 322 321 320 323 324 325 328 330 334 334 332 332 334 332 330 334 325 319 315 313 310 307 306 304 303 303 298 294 290 286 281 275 265 253 241 234 223
284 302 307 309 309 310 312 311 312 315 315 317 320 326 333 330 326 331 336 332 328 326 324 320 316 313 311 309 306 303 301 299 295 291 287 283 279 272 266 260 249 228 219
271 300 306 303 304 306 308 308 311 312 313 315 318 324 327 325 326 331 332 327 323 321 320 317 314 312 311 309 307 305 303 301 297 289 287 284 280 274 267 261 252 235 220
277 289 297 297 301 305 305 305 307 307 308 311 313 318 324 322 320 322 323 324 323 321 319 315 313 312 310 309 308 307 303 300 299 294 289 286 283 279 276 267 256 241 216
275 288 292 296 301 302 304 304 304 304 307 309 312 316 321 319 315 316 317 318 319 317 315 312 310 310 310 310 308 306 302 299 297 293 289 286 282 279 275 267 251 231 203
267 279 284 289 295 301 302 301 302 303 306 308 310 312 315 315 315 316 316 317 317 316 315 313 311 311 313 312 307 302 298 297 297 294 288 283 278 275 270 263 248 232 208
261 271 279 287 291 294 297 299 301 303 305 307 309 310 312 313 313 315 316 314 314 314 312 311 308 308 311 311 307 303 298 296 294 289 282 275 272 269 264 255 244 229 210
251 264 274 281 286 290 293 296 299 302 304 305 307 308 310 311 311 312 313 313 314 312 313 312 308 310 312 312 310 307 303 303 300 294 283 272 264 260 254 250 236 220 205
247 259 268 274 277 283 288 293 298 303 303 303 303 304 305 306 306 308 311 311 313 313 312 311 312 314 313 311 311 312 312 310 308 305 297 281 267 255 252 245 229 213 196